When you browse on this site, cookies collect data to enhance your experience and personalize the content and advertising you see.
Visit our Privacy Policy to learn more. By continuing to use the site, you agree to this use of cookies and data.
  • en France
  • Liste des pays
  • À 7 jours
  • Température de l'eau
  • Carte satellitaire
  • Carte météo
  • Widgets météo
  • user-avatar
    Se connecter

    Météo par heure à Jalalabad

    Ce jour, 17 Juin, Lundi

    Heure Température Précipitation Vent Pression Humidité
    00:00 +33°C° 0 mm 3 m/s 705 mmHg 16%
    01:00 +33°C° 0 mm 3 m/s 704 mmHg 17%
    02:00 +31°C° 0 mm 3 m/s 704 mmHg 17%
    03:00 +30°C° 0 mm 3 m/s 704 mmHg 19%
    04:00 +29°C° 0 mm 2 m/s 704 mmHg 20%
    05:00 +28°C° 0 mm 2 m/s 704 mmHg 21%
    06:00 +30°C° 0 mm 2 m/s 704 mmHg 18%
    07:00 +32°C° 0 mm 2 m/s 704 mmHg 16%
    08:00 +34°C° 0 mm 2 m/s 705 mmHg 14%
    09:00 +35°C° 0 mm 2 m/s 705 mmHg 13%
    10:00 +37°C° 0 mm 2 m/s 705 mmHg 12%
    11:00 +38°C° 0 mm 3 m/s 705 mmHg 10%
    12:00 +39°C° 0 mm 3 m/s 704 mmHg 10%
    13:00 +40°C° 0 mm 3 m/s 704 mmHg 10%
    14:00 +42°C° 0 mm 3 m/s 704 mmHg 9%
    15:00 +40°C° 0 mm 3 m/s 703 mmHg 11%
    16:00 +40°C° 0 mm 3 m/s 703 mmHg 12%
    17:00 +40°C° 0 mm 3 m/s 703 mmHg 14%
    18:00 +39°C° 0 mm 3 m/s 703 mmHg 16%
    19:00 +37°C° 0 mm 3 m/s 703 mmHg 18%
    20:00 +36°C° 0 mm 2 m/s 703 mmHg 20%
    21:00 +36°C° 0 mm 2 m/s 704 mmHg 20%
    22:00 +35°C° 0 mm 2 m/s 704 mmHg 21%
    23:00 +34°C° 0 mm 2 m/s 704 mmHg 21%

    Demain, 18 Juin, Mardi

    Heure Température Précipitation Vent Pression Humidité
    00:00 +32°C° 0 mm 2 m/s 704 mmHg 20%
    01:00 +32°C° 0 mm 2 m/s 703 mmHg 20%
    02:00 +31°C° 0 mm 2 m/s 703 mmHg 19%
    03:00 +30°C° 0 mm 2 m/s 703 mmHg 20%
    04:00 +30°C° 0 mm 2 m/s 703 mmHg 20%
    05:00 +29°C° 0 mm 2 m/s 703 mmHg 21%
    06:00 +30°C° 0 mm 2 m/s 703 mmHg 18%
    07:00 +32°C° 0 mm 2 m/s 704 mmHg 16%
    08:00 +34°C° 0 mm 2 m/s 704 mmHg 14%
    09:00 +36°C° 0 mm 2 m/s 704 mmHg 13%
    10:00 +36°C° 0 mm 1 m/s 704 mmHg 13%
    11:00 +37°C° 0 mm 1 m/s 704 mmHg 12%
    12:00 +39°C° 0 mm 1 m/s 704 mmHg 12%
    13:00 +39°C° 0 mm 1 m/s 704 mmHg 11%
    14:00 +40°C° 0 mm 1 m/s 703 mmHg 11%
    15:00 +40°C° 0 mm 2 m/s 703 mmHg 11%
    16:00 +40°C° 0 mm 3 m/s 703 mmHg 11%
    17:00 +41°C° 0 mm 4 m/s 702 mmHg 12%
    18:00 +40°C° 0 mm 4 m/s 702 mmHg 15%
    19:00 +37°C° 0 mm 3 m/s 702 mmHg 19%
    20:00 +35°C° 0 mm 2 m/s 703 mmHg 23%
    21:00 +35°C° 0 mm 2 m/s 703 mmHg 23%
    22:00 +33°C° 0 mm 1 m/s 703 mmHg 24%
    23:00 +32°C° 0 mm 1 m/s 704 mmHg 25%

    Après-demain, 19 Juin, Mercredi

    Heure Température Précipitation Vent Pression Humidité
    00:00 +31°C° 0 mm 1 m/s 703 mmHg 27%
    01:00 +31°C° 0 mm 1 m/s 703 mmHg 29%
    02:00 +30°C° 0 mm 1 m/s 703 mmHg 31%
    03:00 +29°C° 0 mm 1 m/s 703 mmHg 36%
    04:00 +28°C° 0 mm 1 m/s 703 mmHg 41%
    05:00 +25°C° 0 mm 0 m/s 703 mmHg 46%
    06:00 +29°C° 0 mm 1 m/s 704 mmHg 43%
    07:00 +30°C° 0 mm 1 m/s 704 mmHg 40%
    08:00 +31°C° 0 mm 1 m/s 704 mmHg 37%
    09:00 +32°C° 0 mm 1 m/s 704 mmHg 33%
    10:00 +35°C° 0 mm 2 m/s 704 mmHg 29%
    11:00 +36°C° 0 mm 2 m/s 704 mmHg 25%
    12:00 +37°C° 0 mm 2 m/s 704 mmHg 23%
    13:00 +38°C° 0 mm 2 m/s 704 mmHg 20%
    14:00 +39°C° 0 mm 3 m/s 704 mmHg 17%
    15:00 +40°C° 0 mm 2 m/s 703 mmHg 17%
    16:00 +40°C° 0 mm 2 m/s 703 mmHg 16%
    17:00 +40°C° 0 mm 2 m/s 703 mmHg 15%
    18:00 +39°C° 0 mm 3 m/s 703 mmHg 19%
    19:00 +38°C° 0 mm 4 m/s 703 mmHg 22%
    20:00 +37°C° 0 mm 5 m/s 703 mmHg 25%
    21:00 +36°C° 0 mm 3 m/s 704 mmHg 27%
    22:00 +35°C° 0 mm 2 m/s 704 mmHg 29%
    23:00 +33°C° 0 mm 1 m/s 704 mmHg 32%

    20 Juin, Jeudi

    Heure Température Précipitation Vent Pression Humidité
    00:00 +33°C° 0.2 mm 1 m/s 704 mmHg 34%
    01:00 +32°C° 0.2 mm 1 m/s 704 mmHg 36%
    02:00 +31°C° 0.2 mm 1 m/s 704 mmHg 38%
    03:00 +31°C° 0.1 mm 1 m/s 704 mmHg 40%
    04:00 +30°C° 0.1 mm 1 m/s 704 mmHg 41%
    05:00 +28°C° 0.1 mm 0 m/s 704 mmHg 43%
    06:00 +30°C° 0.2 mm 1 m/s 704 mmHg 41%
    07:00 +31°C° 0.2 mm 1 m/s 704 mmHg 39%
    08:00 +32°C° 0.2 mm 1 m/s 704 mmHg 37%
    09:00 +34°C° 0 mm 2 m/s 705 mmHg 34%
    10:00 +35°C° 0 mm 3 m/s 705 mmHg 32%
    11:00 +37°C° 0 mm 4 m/s 705 mmHg 29%
    12:00 +37°C° 0 mm 4 m/s 705 mmHg 27%
    13:00 +38°C° 0 mm 4 m/s 704 mmHg 26%
    14:00 +40°C° 0 mm 5 m/s 704 mmHg 24%
    15:00 +40°C° 0.1 mm 5 m/s 704 mmHg 23%
    16:00 +39°C° 0.1 mm 5 m/s 704 mmHg 23%
    17:00 +39°C° 0.1 mm 5 m/s 704 mmHg 23%
    18:00 +36°C° 0.7 mm 5 m/s 704 mmHg 29%
    19:00 +34°C° 0.7 mm 4 m/s 704 mmHg 35%
    20:00 +32°C° 0.7 mm 4 m/s 704 mmHg 41%
    21:00 +31°C° 0.1 mm 3 m/s 705 mmHg 41%
    22:00 +31°C° 0.1 mm 3 m/s 705 mmHg 42%
    23:00 +31°C° 0.1 mm 2 m/s 705 mmHg 42%

    21 Juin, Vendredi

    Heure Température Précipitation Vent Pression Humidité
    00:00 +31°C° 0 mm 1 m/s 705 mmHg 44%
    01:00 +30°C° 0 mm 1 m/s 705 mmHg 45%
    02:00 +28°C° 0 mm 0 m/s 704 mmHg 47%
    03:00 +27°C° 0 mm 0 m/s 704 mmHg 49%
    04:00 +27°C° 0 mm 0 m/s 704 mmHg 50%
    05:00 +26°C° 0 mm 0 m/s 704 mmHg 52%
    06:00 +27°C° 0 mm 0 m/s 705 mmHg 47%
    07:00 +29°C° 0 mm 0 m/s 705 mmHg 42%
    08:00 +30°C° 0 mm 0 m/s 705 mmHg 37%
    09:00 +33°C° 0 mm 1 m/s 705 mmHg 33%
    10:00 +35°C° 0 mm 1 m/s 705 mmHg 29%
    11:00 +36°C° 0 mm 1 m/s 705 mmHg 25%
    12:00 +37°C° 0 mm 1 m/s 705 mmHg 22%
    13:00 +39°C° 0 mm 2 m/s 705 mmHg 20%
    14:00 +40°C° 0 mm 2 m/s 704 mmHg 17%
    15:00 +41°C° 0 mm 2 m/s 704 mmHg 17%
    16:00 +41°C° 0 mm 2 m/s 704 mmHg 16%
    17:00 +41°C° 0 mm 2 m/s 703 mmHg 16%
    18:00 +40°C° 0 mm 2 m/s 704 mmHg 17%
    19:00 +40°C° 0 mm 2 m/s 704 mmHg 19%
    20:00 +39°C° 0 mm 2 m/s 704 mmHg 20%
    21:00 +38°C° 0 mm 2 m/s 704 mmHg 22%
    22:00 +36°C° 0 mm 1 m/s 704 mmHg 25%
    23:00 +35°C° 0 mm 1 m/s 705 mmHg 27%

    22 Juin, Samedi

    Heure Température Précipitation Vent Pression Humidité
    00:00 +34°C° 0 mm 1 m/s 704 mmHg 28%
    01:00 +34°C° 0 mm 1 m/s 704 mmHg 29%
    02:00 +33°C° 0 mm 1 m/s 704 mmHg 30%
    03:00 +31°C° 0 mm 0 m/s 704 mmHg 31%
    04:00 +30°C° 0 mm 0 m/s 704 mmHg 32%
    05:00 +29°C° 0 mm 0 m/s 704 mmHg 33%
    06:00 +31°C° 0 mm 0 m/s 704 mmHg 29%
    07:00 +33°C° 0 mm 0 m/s 705 mmHg 26%
    08:00 +34°C° 0 mm 0 m/s 705 mmHg 22%
    09:00 +37°C° 0 mm 1 m/s 705 mmHg 21%
    10:00 +39°C° 0 mm 1 m/s 705 mmHg 20%
    11:00 +40°C° 0 mm 1 m/s 705 mmHg 19%
    12:00 +41°C° 0 mm 2 m/s 705 mmHg 18%
    13:00 +42°C° 0 mm 2 m/s 705 mmHg 17%
    14:00 +43°C° 0 mm 2 m/s 704 mmHg 16%
    15:00 +43°C° 0 mm 2 m/s 704 mmHg 16%
    16:00 +43°C° 0 mm 3 m/s 704 mmHg 16%
    17:00 +43°C° 0 mm 3 m/s 703 mmHg 16%
    18:00 +41°C° 0 mm 2 m/s 704 mmHg 18%
    19:00 +41°C° 0 mm 1 m/s 704 mmHg 20%
    20:00 +40°C° 0 mm 1 m/s 704 mmHg 22%
    21:00 +39°C° 0 mm 1 m/s 704 mmHg 22%
    22:00 +38°C° 0 mm 2 m/s 705 mmHg 22%
    23:00 +37°C° 0 mm 2 m/s 705 mmHg 22%
    Voir plus